Hourly Data Report for July 20, 2004

TORONTO CITY
ONTARIO

43°40'00.000" N
79°24'00.000" W
112.50 m
6158355
71508
XTO

Download Data

Hourly Data (July 2004)
Hourly Data Report for July 20, 2004
TIME
LST
Temp Definition
°C
Dew Point Definition
°C
Rel Hum Definition
%
Precip. Amount Definition
mm

Wind Dir Definition
10's deg

Wind Spd Definition
km/h
Visibility Definition
km
Stn Press Definition
kPa
Hmdx Definition


Wind Chill Definition


Weather Definition


00:00 18.8 18.3 97   LegendMM LegendMM LegendMM 99.66     LegendNANA
01:00 18.7 18.3 98   LegendMM LegendMM LegendMM 99.66     LegendNANA
02:00 18.0 17.6 98   LegendMM LegendMM LegendMM 99.65     LegendNANA
03:00 17.8 17.5 98   LegendMM LegendMM LegendMM 99.67     LegendNANA
04:00 17.5 17.2 98   LegendMM LegendMM LegendMM 99.67     LegendNANA
05:00 17.7 17.0 96   LegendMM LegendMM LegendMM 99.69     LegendNANA
06:00 18.7 17.1 90   LegendMM LegendMM LegendMM 99.71     LegendNANA
07:00 20.2 17.3 83   LegendMM LegendMM LegendMM 99.75 26   LegendNANA
08:00 21.3 17.7 80   LegendMM LegendMM LegendMM 99.81 27   LegendNANA
09:00 23.3 18.0 72   LegendMM LegendMM LegendMM 99.82 29   LegendNANA
10:00 24.1 19.1 74   LegendMM LegendMM LegendMM 99.83 31   LegendNANA
11:00 24.7 19.2 71   LegendMM LegendMM LegendMM 99.84 32   LegendNANA
12:00 26.2 19.9 68   LegendMM LegendMM LegendMM 99.81 34   LegendNANA
13:00 23.0 18.6 76   LegendMM LegendMM LegendMM 99.86 29   LegendNANA
14:00 20.8 19.5 92   LegendMM LegendMM LegendMM 99.83 28   LegendNANA
15:00 20.0 19.2 95   LegendMM LegendMM LegendMM 99.85 27   LegendNANA
16:00 24.5 21.2 82   LegendMM LegendMM LegendMM 99.79 33   LegendNANA
17:00 23.0 19.8 82   LegendMM LegendMM LegendMM 99.83 30   LegendNANA
18:00 23.0 19.8 82   LegendMM LegendMM LegendMM 99.84 30   LegendNANA
19:00 21.5 20.3 93   LegendMM LegendMM LegendMM 99.87 29   LegendNANA
20:00 20.9 20.3 96   LegendMM LegendMM LegendMM 99.88 29   LegendNANA
21:00 20.3 19.9 98   LegendMM LegendMM LegendMM 99.89 28   LegendNANA
22:00 20.2 19.9 98   LegendMM LegendMM LegendMM 99.92 28   LegendNANA
23:00 20.0 19.8 99   LegendMM LegendMM LegendMM 99.96 27   LegendNANA

Notes on Data Quality.

Legend

  • E = Estimated
  • M = Missing
  • NA = Not Available*
  • [empty] = Indicates an unobserved value
Date modified: